Regional Weather Roundup
Issued by NWS

Home | Current Version | Previous Version | Text Only | Print | Product List | Glossary On
Versions: 1 2 3 4 5 6 7 8 9 10 11 12 13 14 15 16 17 18 19 20 21 22 23 24 25 26 27 28 29 30 31 32 33 34 35 36 37 38 39 40 41 42 43 44 45 46 47 48 49 50
000
ASUS45 KBOU 010407
RWRCO

WEATHER ROUNDUP FOR COLORADO
NATIONAL WEATHER SERVICE DENVER/BOULDER CO
1000 PM MDT THU JUL 31 2014

NOTE: "FAIR" INDICATES FEW OR NO CLOUDS BELOW 12000 FEET WITH NO
SIGNIFICANT WEATHER AND/OR OBSTRUCTIONS TO VISIBILITY.

COZ001>005-013-030-031-010500-
...NORTHWEST COLORADO...

CITY           SKY/WX    TMP DP  RH WIND       PRES   REMARKS
CRAIG          MOCLDY    58  54  86 CALM      30.23R
HAYDEN         PTCLDY    64  50  59 E10       30.27R
MEEKER         CLOUDY    67  51  56 CALM      30.24R
MOUNT WERNER   NOT AVBL
STEAMBOAT SPGS PTCLDY    65  43  43 NE10      30.29R
WALDEN         CLEAR     54  41  62 SE7       30.41R
$$

COZ006>008-011-010500-
...WEST CENTRAL VALLEYS...

CITY           SKY/WX    TMP DP  RH WIND       PRES   REMARKS
GRAND JUNCTION MOCLDY    74  54  49 NE3       30.10R
MONTROSE       MOCLDY    72  56  57 S8        30.20R
EAGLE          CLOUDY    63  57  82 CALM      30.30R
RIFLE          CLOUDY    71  48  43 SE14      30.17R
DELTA          MOCLDY    78  50  37 E7        30.14R
NUCLA          MOCLDY    73  48  40 CALM      30.23R
$$

COZ017>023-064>068-010500-
...SOUTHWEST COLORADO...

CITY           SKY/WX    TMP DP  RH WIND       PRES   REMARKS
DURANGO        MOCLDY    66  53  63 VRB6      30.29R
CORTEZ         CLEAR     70  49  47 E3        30.20R
PAGOSA SPRINGS CLOUDY    60  52  77 CALM      30.38R
TELLURIDE      CLOUDY    59  50  72 CALM      30.43R
WOLF CREEK PAS NOT AVBL
$$

COZ009-010-012-014-032>034-037-058>063-010500-
...CENTRAL COLORADO...

CITY           SKY/WX    TMP DP  RH WIND       PRES   REMARKS
ASPEN          CLOUDY    60  50  69 S7        30.35R
BUENA VISTA    DRIZZLE   54  50  88 CALM      30.45R
COPPER MTN     MOCLDY    48  37  66 W8        30.66R
BERTHOUD PASS  FOG       36  36 100 SE20      30.71R VSB<1/4
COTTONWOOD PAS RAIN      52  46  82 S5        30.55R
GUNNISON       CLOUDY    63  45  51 E15       30.38R
KREMMLING      CLOUDY    61  43  51 E8        30.37R
LEADVILLE      CLOUDY    47  47 100 SW6         N/A
MONARCH PASS   LGT RAIN  41  39  93 E16       30.75R VSB 1/4
SALIDA         CLOUDY    56  54  93 CALM      30.50R
SUNLIGHT       CLOUDY    50  46  87 CALM      30.58R
WILKERSON PASS FOG       43  41  93 NE9G16    30.65R VSB 1/2
$$

COZ069>075-010500-
...SAN LUIS VALLEY/SANGRE DE CRISTO MOUNTAINS...

CITY           SKY/WX    TMP DP  RH WIND       PRES   REMARKS
ALAMOSA        MOCLDY    57  51  80 S9        30.38R
LA VETA PASS   DRZL/FOG  46  45  93 E6        30.55R VSB 1/4
SAGUACHE       CLOUDY    57  54  88 CALM      30.40R
$$

COZ035-036-038>040-010500-
...NORTHERN COLORADO FRONT RANGE...

CITY           SKY/WX    TMP DP  RH WIND       PRES   REMARKS
DENVER INTL AP PTCLDY    68  50  52 SW5       30.27R
DMNS CITY PARK   N/A     62  55  78 S1        30.27S
AURORA         MOCLDY    62  52  70 S6        30.30R
FRONT RANGE AP PTCLDY    68  52  56 SW5       30.29R
ERIE MUNI ARPT PTCLDY    62  55  75 CALM      30.26R
BOULDER MUN AP PTCLDY    64  50  59 SW3       30.27R
CENTENNIAL     MOCLDY    63  52  67 CALM      30.31R
BROOMFIELD     PTCLDY    63  48  59 W7        30.30R
FORT COLLINS   CLEAR     66  50  55 SW6       30.26R
LONGMONT       CLEAR     62  53  71 W5        30.28R
$$

COZ041-046-047-076>085-087-088-010500-
...PIKES PEAK/PALMER DIVIDE AND SOUTHERN FOOTHILLS...

CITY           SKY/WX    TMP DP  RH WIND       PRES   REMARKS
COLO. SPRINGS  CLOUDY    63  56  78 S3        30.36R
A. F. ACADEMY  CLOUDY    60  58  93 CALM      30.37R
ELLICOTT       MOCLDY    60  56  86 W3        30.34R
FALCON         CLOUDY    58  56  95 W5        30.40R
FORT CARSON    CLOUDY    62  56  81 CALM      30.33R
LIMON          PTCLDY    60  52  74 CALM      30.29R
MONUMENT HILL  PTCLDY    54  52  94 SW5       30.38R
TRINIDAD       CLOUDY    64  56  75 NW5       30.31R
$$

COZ042>045-048>051-090-091-010500-
...NORTHEAST COLORADO...

CITY           SKY/WX    TMP DP  RH WIND       PRES   REMARKS
GREELEY ARPT   NOT AVBL
AKRON          PTCLDY    68  51  54 SW5       30.22R
BURLINGTON     PTCLDY    63  53  70 SW7       30.21R
WRAY             N/A     71  58  63 W3        30.16R
STERLING       PTCLDY    70  61  73 NW3       30.17S
HOLYOKE        CLEAR     66  59  77 CALM      30.17S
FORT MORGAN    PTCLDY    67  48  50 CALM      30.22S
$$

COZ086-089-092>099-010500-
...SOUTHEAST COLORADO...

CITY           SKY/WX    TMP DP  RH WIND       PRES   REMARKS
PUEBLO         MOCLDY    67  58  72 CALM      30.26R
LA JUNTA       PTCLDY    67  56  67 S6        30.24R
LAMAR          PTCLDY    63  59  87 SW5       30.19R
SPRINGFIELD      N/A     64  56  75 SE6       30.24R
$$


USA.gov is the U.S. government's official web portal to all federal, state and local government web resources and services.